Location: *
(6.1770°N, 170.5260°W)
Time: 07:31:30
(UTC+00:00)

Daily predictions for brighter satellites

Satellite Brightness Start Highest point End
(mag) Time Altitude Azimuth Time Altitude Azimuth Time Altitude Azimuth
Cosmos 1980 Rocket 3.4 15:28:07 34° NE 15:28:07 34° NE 15:31:16 10° NNE
ATLAS 3B R/B 3.5 15:40:00 35° SSW 15:40:00 35° SSW 15:44:01 10° S
NOSS 3-2 (A) 4.0 15:37:10 50° NNW 15:39:46 89° WSW 15:48:09 10° SSE
Cosmos 1821 Rocket 3.8 15:35:52 10° S 15:41:58 89° W 15:48:06 10° N
Meteor 2-10 Rocket 4.5 15:37:10 10° S 15:45:53 21° NNE 15:47:32 10° N
ATLAS 5 CENTAUR R/B 2.3 15:47:24 45° SE 15:48:00 49° ESE 15:52:13 10° NE
Cosmos 2112 Rocket 4.1 15:47:44 56° NNE 15:48:42 71° ENE 15:53:53 10° SSE
Ariane 3 Deb 4.4 15:51:37 17° E 15:51:37 17° E 15:52:23 10° E
Delta 2 Rocket 4.4 15:54:26 36° NE 15:54:26 36° NE 15:56:43 10° NE
Cosmos 1535 Rocket 4.3 15:46:59 10° S 15:53:14 85° W 15:59:24 10° N
CZ-2C R/B 4.4 15:50:01 10° NE 15:54:28 30° ESE 15:58:57 10° SSE
SL-16 R/B 4.0 15:51:31 10° SSE 15:56:28 32° ESE 16:01:25 10° NE
Milstar 3 3.4 15:53:21 38° WNW 15:58:13 89° NE 16:05:33 10° ESE
USA 234 4.4 15:52:52 10° ENE 15:58:55 41° SE 16:04:59 10° SSW
Cosmos 1125 Rocket 3.4 15:54:21 10° S 15:59:33 86° ESE 16:04:44 10° NNE
CZ-3 R/B 4.3 15:55:37 22° NW 16:01:19 25° NNW 16:08:51 10° NNE
BREEZE-M DEB (TANK) 4.1 15:46:01 10° NW 16:02:44 70° NE 16:07:05 10° SE
Cosmos 372 Rocket 3.7 16:02:58 10° SSW 16:08:02 73° WNW 16:13:05 10° N
Ariane H10+ 2.8 16:08:38 39° SSE 16:08:38 39° SSE 16:11:30 10° E
Delta 198 4.4 16:10:29 36° NNW 16:10:29 36° NNW 16:15:08 10° NE
H-II Stage 2 3.6 16:09:28 16° S 16:10:41 20° SE 16:14:12 10° E
Cosmos 2219 3.6 16:16:02 40° W 16:16:42 41° WSW 16:22:04 10° S
Cosmos 2227 Rocket 2.7 16:13:11 10° N 16:18:43 59° ENE 16:24:15 10° SSE
Cosmos 1933 3.3 16:14:36 10° S 16:18:43 88° E 16:22:47 10° N
Cosmos 1680 Rocket 3.9 16:18:55 39° W 16:19:07 39° W 16:23:58 10° S
SJ 16-02 2.6 16:22:15 24° NNW 16:22:15 24° NNW 16:24:18 10° N
Ariane H10+ 3.7 16:15:42 26° WSW 16:20:17 53° S 16:23:58 10° ESE
Okean-O 2.7 16:16:18 10° NNE 16:20:42 80° E 16:25:08 10° S
Meteor 2-3 Rocket 4.5 16:25:38 29° W 16:25:38 29° W 16:30:07 10° SSW
SWIFT 2.7 16:25:17 40° NW 16:26:10 47° NNW 16:30:15 10° NE
Cosmos 1605 Rocket 3.9 16:20:58 10° S 16:27:12 77° W 16:33:20 10° N
NOSS 3-2 (C) 4.3 16:25:42 16° NW 16:32:13 51° WSW 16:40:13 10° S
Cosmos 2297 Rocket 2.5 16:27:18 10° N 16:32:55 70° ENE 16:38:32 10° SSE
Cosmos 1000 Rocket 4.4 16:27:34 10° NNW 16:33:41 65° W 16:39:45 10° S
Ariane H10-3 2.7 16:33:48 19° SSW 16:34:15 20° SSW 16:35:56 10° SE
MAQSAT/ARIANE V 4.5 16:21:36 20° W 16:40:18 51° SSW 16:45:15 10° SE
Cosmos 1862 3.7 16:36:22 10° N 16:40:19 65° E 16:44:19 10° SSE
Meteor 2-17 Rocket 4.5 16:35:46 10° SSW 16:41:38 54° W 16:47:30 10° N
DELTA-4 R/B 3.4 16:41:13 20° WNW 16:44:02 35° NNW 16:46:53 10° ENE
MSX 3.8 16:40:01 10° N 16:45:45 77° WNW 16:51:32 10° SSW
Cosmos 1408 4.3 16:48:00 16° WSW 16:48:00 16° WSW 16:49:32 10° SW
USA 215 3.7 16:46:14 10° SSE 16:52:20 42° SW 16:58:26 10° WNW
Milstar 3 Cent rocket 3.6 16:50:31 16° WNW 16:54:18 32° NNW 17:02:01 10° NE
Cosmos 2322 Rocket 2.2 16:51:11 10° SSW 16:56:41 57° WNW 17:02:14 10° N
Atlas Centaur 2 2.9 16:54:53 10° SSW 16:58:29 29° SSE 17:01:43 10° E
PSLV R/B 2.9 16:56:15 10° SW 16:59:16 86° SE 17:02:21 10° NE
Cosmos 2082 3.7 16:54:30 10° NNW 17:00:10 68° WSW 17:05:51 10° S
Cosmos 1869 Rocket 3.9 16:56:08 10° NNW 17:00:21 43° W 17:04:36 10° SSW
CZ-2C R/B 3.8 16:55:58 10° S 17:00:42 69° WSW 17:05:24 10° NNW
Cosmos 1825 3.9 17:00:15 13° W 17:00:48 14° W 17:02:45 10° SW
Cosmos 1441 Rocket 3.6 16:57:18 10° SSW 17:01:02 42° W 17:04:47 10° NNW
CENTAUR R/B 3.2 16:54:19 10° NNW 17:02:48 77° WSW 17:11:03 10° SSE
Cosmos 2173 Rocket 4.4 16:56:52 10° S 17:03:10 72° E 17:09:20 10° N
Cosmos 1459 Rocket 4.2 16:59:22 10° S 17:05:29 77° E 17:11:41 10° N
Cosmos 2285 Rocket 4.4 17:00:51 10° NNW 17:06:54 44° W 17:12:56 10° S
Gbstr 26 Del rocket 4.5 17:00:02 10° NW 17:07:02 64° SW 17:15:00 10° SSE
Cosmos 2360 Rocket 3.0 17:02:01 10° S 17:07:35 58° ESE 17:13:07 10° NNE
SKYMED 2 3.5 17:04:56 10° S 17:09:15 75° WSW 17:13:34 10° NNW
Cosmos 2242 Rocket 4.3 17:05:29 10° SSW 17:09:34 34° W 17:13:41 10° NNW
IDEFIX/ARIANE 42P 3.8 17:08:09 10° NNW 17:11:49 20° WNW 17:15:28 10° WSW
Delta 7925 Rocket 4.0 17:09:57 10° W 17:14:11 35° NNW 17:18:44 10° NE
GENESIS II 4.3 17:12:03 10° SW 17:15:51 52° WNW 17:19:39 10° N
Ariane Rocket 4.0 17:15:58 10° NNE 17:20:55 54° ESE 17:25:51 10° S
Maqsat-H 3.6 17:22:29 10° WSW 17:42:53 61° S 17:47:26 10° E
Maqsat-B 4.5 17:32:29 10° WSW 17:50:35 62° S 17:54:55 10° E
